DECAYED
Showing default

AYRIS-2, 56986 (Decayed)

Orbit data source: Space-Track

AYRIS-2, 56986 was a payload satellite owned by NanoAvionics (IL) in LEO that was launched on Mon, 12 Jun 2023 UTC via an FALCON 9 launch vehicle from the Air Force Western Test Range (AFWTR). Payload-class satellites include a variety of spacecraft equipped with specific instruments for various scientific and technological missions. These include communications satellites like Starlink; space stations such as the ISS; scientific satellites like the Hubble; Earth observation satellites from companies like Planet Labs, Umbra, and HawkEye 360; GPS; miniature CubeSats for education and research; and military/defense satellites.

Not visible in the next 10 days
Identifier
56986, 2023-084BG
Orbit
Decayed
Country
Flag of ILIL / ISRA
Related business
Manufacturer
NanoAvionics
Mission
Decayed Commercial Technology
Bus & Motor
CUBESAT 6U, Unknown motor
Mass
10 kg wet, 10 kg dry
Launch date (UTC)
2023-06-12 (3 years ago)
Launch vehicle
FALCON 9
Launch site
Air Force Western Test Range (AFWTR)
Object type
Payload
Rocket body
Debris
Shape & HBR
Box, 0.2 m
Radar Cross Section
0.080 m², Medium (>0.1 m² and < 1m²)

Expand to show TLE details & history
Last TLE update: 1 year ago

TLE from 1 year ago
0 AYRIS-2
1 56986U 23084BG  25130.11821608  .07448875  25916-5  12047-2 0  9996
2 56986  97.5297 270.2008 0016274 268.8175  91.1256 16.33216228106770
Epoch: 2025-05-10T02:50Z
TLE epoch observation values (Epoch: 2025-05-10T02:50:13.869Z)
Latitude
-0.00001°
Longitude
-0.52158°
Altitude
187.376 km
Speed
7.794 km/s
True Right ascension
18h 00m 48s
True Declination
0° 00' 00"
Sunlit
Object was in full shadow at epoch
Visualization orbit readout
Latitude
Unknown
Longitude
Unknown
Altitude
Unknown
Speed
Unknown
Apparent Right ascension
Unknown
Apparent Declination
Unknown
Sunlit
N/A
Visualization observer readout
Local Sidereal Time
03:04:18
Azimuth
Unknown
Elevation
Unknown
Doppler factor
Unknown
Orbital elements
Apogee altitude
191.407 km
Perigee altitude
170.059 km
Semi-major axis
6,558.87 km
Eccentricity
0.00163
Inclination
97.5297°
RAAN
270.2008°
Arg. of periapsis
268.8175°
True anomaly
91.31204°
Mean anomaly
91.1256°
Eccentric anomaly
91.21882°
Mean motion
4.08601 °/min
Orbital period
88.11 mins
BSTAR
0.0012047
Loading maneuver chart data...
Computing Atmospheric mass density...

Documentation

Showing up to 5 results
|